Regional Weather Roundup
Issued by NWS Upton, NY

Home | Current Version | Previous Version | Text Only | Print | Product List | Glossary On
Versions: 1 2 3 4 5 6 7 8 9 10 11 12 13 14 15 16 17 18 19 20 21 22 23 24 25 26 27 28 29 30 31 32 33 34 35 36 37 38 39 40 41 42 43 44 45 46 47 48 49 50
000
ASUS41 KOKX 301605
RWROKX

REGIONAL WEATHER ROUNDUP
NATIONAL WEATHER SERVICE NEW YORK NY
1200 PM EDT SAT AUG 30 2014

NOTE: "FAIR" INDICATES FEW OR NO CLOUDS BELOW 12,000 FEET WITH NO
SIGNIFICANT WEATHER AND/OR OBSTRUCTIONS TO VISIBILITY.

NYZ071-072-176-178-NJZ106-104-301700-
NEW YORK CITY METRO AREA


CITY           SKY/WX    TMP DP  RH WIND       PRES   REMARKS
CENTRAL PARK   SUNNY     79  56  45 S6        30.27F
LAGUARDIA APRT MOSUNNY   77  57  50 S14G22    30.24F
KENNEDY INTL   PTSUNNY   75  57  53 S8        30.27F
NEWARK/LIBERTY MOSUNNY   76  57  51 SE12G17   30.24F
BRNX BOT. GARD   N/A     75  57  53 S6        30.27R
TETERBORO      MOSUNNY   77  56  48 SE9       30.23F
$$

NYZ177-179-078>081-301700-
LONG ISLAND NEW YORK

CITY           SKY/WX    TMP DP  RH WIND       PRES   REMARKS
FARMINGDALE    PTSUNNY   75  58  55 S12G17    30.26F
ISLIP          PTSUNNY   73  60  63 S9        30.25F
SHIRLEY        CLOUDY    74  59  59 S12       30.27F
WESTHAMPTON    MOSUNNY   75  58  55 S12       30.29F
MONTAUK POINT    N/A     74  61  63 SE7       30.30F
$$

NYZ052-065-067-301700-
HUDSON VALLEY

CITY           SKY/WX    TMP DP  RH WIND       PRES   REMARKS
WHITE PLAINS   MOSUNNY   75  56  51 S13G20    30.25F
NEWBURGH       PTSUNNY   73  54  49 VRB6      30.25F
MONTGOMERY     PTSUNNY   75  57  53 W7        30.23F
POUGHKEEPSIE   NOT AVBL
ALBANY         MOSUNNY   74  55  51 S18G25    30.20F
$$

NJZ001-105-106-008-010-013-015-019>022-104-301700-
NEW JERSEY

CITY           SKY/WX    TMP DP  RH WIND       PRES   REMARKS
NEWARK/LIBERTY MOSUNNY   76  57  51 SE12G17   30.24F
TETERBORO      MOSUNNY   77  56  48 SE9       30.23F
CALDWELL       MOSUNNY   76  56  49 MISG      30.24F
MORRISTOWN     MOSUNNY   77  57  50 S7        30.25F
SOMERVILLE     CLOUDY    75  60  59 CALM      30.23F
LINDEN         FAIR      80  59  49 SW6       30.26F
SUSSEX         PTSUNNY   76  57  51 SW9       30.24F
ANDOVER          N/A     72  59  63 VRB5      30.25F
TRENTON        CLOUDY    74  61  63 S9        30.24F
MILLVILLE      CLOUDY    75  60  59 S5        30.25F
ATLANTIC CITY  CLOUDY    74  63  68 SE9       30.25F
WRIGHTSTOWN    PTSUNNY   77  62  60 SE8       30.22F
TOMS RIVER     CLOUDY    75  63  64 S7        30.26S
BELMAR         CLOUDY    73  61  64 S9        30.25F
$$

PAZ047>061-062-071-301700-
EASTERN PENNSYLVANIA

CITY           SKY/WX    TMP DP  RH WIND       PRES   REMARKS
PHILADELPHIA   CLOUDY    76  62  62 SW9       30.25S
ALLENTOWN      CLOUDY    73  62  68 SW5       30.24F
SCRANTON       CLOUDY    71  59  65 S8        30.23S
$$

CTZ002-004>006-009-010-012-RIZ004-006-007-MAZ004-011-015-301700-
SOUTHERN NEW ENGLAND
 IN CT

CITY           SKY/WX    TMP DP  RH WIND       PRES   REMARKS
BRADLEY INTL   PTSUNNY   74  57  55 S13       30.24F
HARTFORD       CLOUDY    73  57  57 S10G16    30.25F
DANBURY        MOSUNNY   74  57  55 VRB7      30.26F
WTRBRY/OXFORD  PTSUNNY   72  57  60 S9        30.28F
BRIDGEPORT     SUNNY     74  61  63 S8        30.26F
MERIDEN        CLOUDY    74  58  57 S9        30.26F
NEW HAVEN      PTSUNNY   76  60  57 SE12      30.26F
CHESTER        PTSUNNY   72  61  68 S6        30.28F
GROTON         SUNNY     71  60  68 S10       30.28F
WILLIMANTIC    PTSUNNY   72  56  57 S10       30.28F

 IN RI

CITY           SKY/WX    TMP DP  RH WIND       PRES   REMARKS
PROVIDENCE     MOSUNNY   72  59  63 SE10      30.29F
BLOCK ISLAND   SUNNY     72  57  60 S9        30.30S
WESTERLY       SUNNY     71  58  63 SE10      30.30F

 IN MA

CITY           SKY/WX    TMP DP  RH WIND       PRES   REMARKS
BOSTON         MOSUNNY   72  54  53 VRB7      30.26
WORCESTER      MOSUNNY   69  53  56 S13       30.28F
WESTFIELD      PTSUNNY   74  58  57 S14       30.24F
PROVINCETOWN   SUNNY     70  52  52 SW13      30.30F
NANTUCKET      SUNNY     66  52  60 S9        30.31F
$$

ANZ330-335-338-340-345-350-353-355-301700-
COASTAL MARINE OBSERVATIONS


STATION/POSITION TIME  SKY/WX   TEMP    WIND        PRES    VSBY  WAVE
                                AIR SEA DIR/SP/G                  HT/PER
                 (UTC)          (F)     (DEG/KT/KT) (MB)    (MI)  (FT/S)
NY HARB ENTRANCE NOT AVBL
4S FIRE IS       NOT AVBL
23SW MTP         1600                                 N/A           2/ 8
HUDSON CANYON    1600            72 73  150/  6/  8 1024.8          2/ 8
EXECUTION ROCKS  1600            74 74  210/  8/ 10   N/A
WESTERN LI SOUND 1600            71     360/  2/  4   N/A           1
CENTRAL LI SOUND 1500            71 72  160/ 10/ 12   N/A           1/ 2
EASTERN LI SOUND 1500            69 70  160/ 10/ 12   N/A
ROBBINS REEF     1600            71     160/ 11/ 13   N/A
$$


>>>>>>>>>>>>>>>>>>>>>>>>>>>> KEY <<<<<<<<<<<<<<<<<<<<<<<<<<<
>                                                          <
>     SKY/WX - SKY CONDITION/PRESENT WEATHER               <
>     TMP    - TEMPERATURE IN FAHRENHEIT                   <
>     DP     - DEWPOINT IN FAHRENHEIT                      <
>     RH     - RELATIVE HUMIDITY IN PERCENT                <
>     WIND   - DIRECTION AND SPEED IN MPH                  <
>     PRES   - MEAN SEA LEVEL PRESSURE IN INCHES OF HG     <
>     WCI    - WIND CHILL INDEX                            <
>     VSB    - VISIBILITY IN MILES                         <
>     HX     - HEAT INDEX                                  <
>     TC     - TEMPERATURE IN CELSIUS                      <
>     VRB    - VARIABLE WIND DIRECTION                     <
>                                                          <
>>>>>>>>>>>>>>>>>>>>>>>>>>>> KEY <<<<<<<<<<<<<<<<<<<<<<<<<<<





USA.gov is the U.S. government's official web portal to all federal, state and local government web resources and services.